Preview of NWS' New Version of Forecast
This preview is not operational and should not be used for support decisions.

Regional Weather Roundup (RWR)

Issued by Gray - Portland, ME (GYX)

                            
000
ASUS41 KGYX 220310
RWRGYX
WEATHER ROUNDUP FOR MAINE AND NEW HAMPSHIRE
NATIONAL WEATHER SERVICE GRAY ME
1100 PM EDT TUE MAY 21 2019

MEZ002-005-006-010-012-015-018-020-021-024-026-027-029-220400-
MAINE
  
CITY           SKY/WX    TMP DP  RH WIND       PRES   REMARKS
PORTLAND       FAIR      54  37  52 NW10      29.92R                  
SANFORD        FAIR      54  36  50 NW12      29.94R                  
BAR HARBOR     LGT RAIN  49  41  74 N7G18     29.81R                  
WISCASSET      FAIR      52  35  52 VRB7      29.88R                  
ROCKLAND       FAIR      52  38  58 NW12G21   29.84R                  
FRYEBURG       CLOUDY    54  33  45 N17G24    29.94R                  
LEWISTONAUBURN FAIR      52  37  56 NW15      29.90R                  
AUGUSTA        FAIR      51  34  52 NW17G25   29.88R                  
WATERVILLE     FAIR      51  35  54 NW16G23   29.85R                  
BANGOR         MOCLDY    50  41  71 N20G29    29.84R                  
GREENVILLE       N/A     41  34  76 NW17G30   29.85R                  
MILLINOCKET    CLOUDY    46  34  62 N18G25    29.86R                  
HOULTON        CLOUDY    41  36  82 N14G23    29.80R                  
PRESQUE ISLE   CLOUDY    41  38  89 NW17      29.85R                  
FRENCHVILLE    CLOUDY    40  35  83 N14G21    29.85R                  
CARIBOU        CLOUDY    41  37  86 N9        29.83R                  
$$

NHZ002-005-008-009-011-012-014-220400-
NEW HAMPSHIRE
  
CITY           SKY/WX    TMP DP  RH WIND       PRES   REMARKS
ROCHESTER      FAIR      54  35  48 NW14G23   29.93R                  
NASHUA         FAIR      57  34  41 NW15      29.98R                  
MANCHESTER     FAIR      58  33  39 NW13      29.96R                  
CONCORD        CLOUDY    55  35  47 NW8       29.98R                  
LACONIA        CLOUDY    53  38  56 VRB7G17   29.98R                  
PLYMOUTH       MOCLDY    52  39  61 NW8       29.98R                  
BERLIN         FAIR      50  34  54 NW14G32   29.95R                  
WHITEFIELD     MOCLDY    50  35  56 NW9G20    29.99R                  
JAFFREY        FAIR      54  32  43 NW10G18   30.01R                  
KEENE          FAIR      56  34  43 NW9G16    30.00R                  
LEBANON        FAIR      55  34  45 NW9       30.00R                  
MT WASHINGTON  SNOWSHWR  27  27 100 NW91G110    N/A  VSB 0   WCI   3  
$$

VTZ005-007-008-220400-
VERMONT
  
CITY           SKY/WX    TMP DP  RH WIND       PRES   REMARKS
ST JOHNSBURY     N/A     51  38  60 MISG      29.99R                  
MONTPELIER     FAIR      50  36  58 NW17G26   30.05R                  
BURLINGTON     MOCLDY    55  38  52 NW12      30.06R                  
$$

MAZ007-012-024-CTZ003-RIZ002-NYZ038-NYZ072-220400-
SOUTHERN NEW ENGLAND AND NY
  
CITY           SKY/WX    TMP DP  RH WIND       PRES   REMARKS
BOSTON         FAIR      61  33  35 NW13      29.98R                  
WORCESTER      FAIR      54  32  43 NW13      30.02R                  
NANTUCKET      FAIR      59  37  44 NW17      29.95R                  
PROVIDENCE     FAIR      59  31  34 NW9       30.02R                  
HARTFORD       FAIR      57  32  38 NW3       30.04R                  
ALBANY         FAIR      53  34  48 NW9       30.09R                  
NEW YORK CITY  FAIR      63  36  36 NW18      30.09R                  
$$

ANZ081-ANZ082-ANZ150-NHZ014-MEZ023>029-220400-
COASTAL MARINE OBSERVATIONS
  
STATION/POSITION TIME  TEMP    WIND        PRES    WAVE
                       AIR SEA DIR/SP/G            HT/PER
                 (UTC) (F)     (DEG/KT/KT) (MB)    (FT/S)
ISLE OF SHOALS   0200   56     300/ 22/ 26 1012.5R
JEFFREYS LEDGE   0238      47                N/A     3/ 5
CASHES LEDGE BUO 0250   50 47              1010.7R   4/ 6
GEORGES BANK BUO 0250   49 45  270/ 16/ 19 1010.8S   6/ 7
$$

.............KEY..............
   WCI - WIND CHILL
   TC  - TEMPERATURE IN CELSIUS
   VSB - VISIBILITY IN MILES
   HX  - HEAT INDEX
   FAIR- INDICATES FEW OR NO CLOUDS BELOW 12,000 FT, WITH NO 
         SIGNIFICANT WEATHER AND/OR OBSTRUCTIONS TO VISIBILITY.